QPF
0.00 0.00 0.00 0.02 0.13 0.02 0.00 0.00 0.00 0.00 0.00 0.00 0.00 0.01 0.00 0.01 0.02 0.00 0.00 0.00 0.00 0.00 0.00 0.01 0.04 0.03 0.02 0.01 0.00 0.00 0.00 0.00 0.01 0.01 0.00 0.00 0.00 0.00 0.01 0.02 0.01 0.01 0.02 0.01 0.00 0.00 0.00 0.00 0.00
0.01 0.01 0.04 0.20 0.06 0.01 0.02 0.01 0.01 0.01 0.00 0.00 0.00 0.00 0.00 0.00 0.00 0.00 0.00 0.00 0.00 0.00 0.00 0.00 0.05 0.06 0.00 0.01 0.02 0.02 0.01 0.02 0.01 0.01 0.00 0.00 0.00 0.00 0.01 0.01 0.01 0.00 0.01 0.00 0.00 0.00 0.00 0.01 0.00
0.00 0.00 0.23 0.09 0.01 0.00 0.00 0.00 0.00 0.00 0.00 0.01 0.00 0.00 0.00 0.00 0.00 0.00 0.00 0.00 0.00 0.00 0.00 0.00 0.04 0.04 0.01 0.01 0.01 0.02 0.02 0.01 0.00 0.00 0.00 0.00 0.00 0.00 0.00 0.00 0.01 0.00 0.00 0.00 0.00 0.00 0.00 0.00 0.00
0.03 0.15 0.11 0.00 0.00 0.00 0.00 0.00 0.00 0.00 0.00 0.00 0.00 0.00 0.00 0.00 0.00 0.00 0.00 0.00 0.00 0.00 0.00 0.01 0.03 0.00 0.00 0.00 0.00 0.01 0.00 0.00 0.01 0.01 0.00 0.00 0.00 0.00 0.00 0.00 0.00 0.00 0.00 0.00 0.00 0.00 0.00 0.00 0.00
0.01 0.07 0.04 0.00 0.00 0.01 0.00 0.00 0.00 0.00 0.00 0.00 0.00 0.00 0.00 0.00 0.00 0.00 0.00 0.00 0.00 0.00 0.00 0.00 0.01 0.00 0.00 0.00 0.00 0.00 0.00 0.00 0.00 0.01 0.02 0.00 0.00 0.00 0.00 0.00 0.00 0.00 0.00 0.00 0.00 0.00 0.00 0.00 0.00
0.07 0.00 0.00 0.00 0.00 0.00 0.00 0.00 0.00 0.00 0.00 0.00 0.00 0.00 0.00 0.00 0.00 0.00 0.00 0.00 0.00 0.00 0.00 0.00 0.00 0.00 0.00 0.00 0.00 0.00 0.00 0.00 0.00 0.00 0.00 0.00 0.00 0.00 0.00 0.00 0.00 0.00 0.00 0.00 0.00 0.00 0.00 0.00 0.00
0.02 0.00 0.00 0.00 0.00 0.00 0.00 0.00 0.00 0.00 0.00 0.00 0.00 0.00 0.00 0.00 0.00 0.00 0.00 0.06 0.00 0.00 0.00 0.00 0.00 0.00 0.00 0.00 0.00 0.00 0.00 0.00 0.00 0.00 0.00 0.00 0.00 0.00 0.00 0.00 0.00 0.00 0.00 0.00 0.00 0.00 0.00 0.00 0.00
0.05 0.02 0.00 0.00 0.00 0.00 0.00 0.00 0.00 0.00 0.00 0.00 0.00 0.00 0.00 0.00 0.00 0.00 0.00 0.01 0.00 0.00 0.00 0.00 0.00 0.00 0.00 0.00 0.00 0.00 0.00 0.00 0.00 0.00 0.00 0.00 0.00 0.00 0.00 0.00 0.00 0.00 0.00 0.00 0.00 0.00 0.00 0.00 0.00
0.01 0.00 0.00 0.00 0.00 0.00 0.00 0.00 0.00 0.00 0.00 0.00 0.00 0.00 0.00 0.00 0.00 0.00 0.00 0.00 0.02 0.01 0.00 0.00 0.00 0.00 0.00 0.00 0.00 0.00 0.00 0.00 0.00 0.00 0.00 0.00 0.00 0.00 0.00 0.00 0.00 0.00 0.00 0.00 0.00 0.00 0.00 0.00 0.00
0.00 0.00 0.00 0.00 0.00 0.00 0.00 0.00 0.00 0.00 0.00 0.00 0.00 0.00 0.00 0.00 0.00 0.00 0.00 0.00 0.02 0.01 0.00 0.02 0.00 0.00 0.00 0.00 0.00 0.00 0.03 0.03 0.00 0.00 0.00 0.00 0.01 0.00 0.00 0.00 0.00 0.00 0.00 0.00 0.00 0.00 0.00 0.00 0.00
0.00 0.00 0.00 0.00 0.00 0.00 0.00 0.00 0.00 0.00 0.00 0.00 0.00 0.00 0.00 0.00 0.00 0.00 0.00 0.00 0.00 0.00 0.00 0.00 0.00 0.01 0.02 0.00 0.00 0.00 0.01 0.00 0.00 0.00 0.00 0.00 0.00 0.00 0.00 0.00 0.00 0.00 0.00 0.00 0.00 0.00 0.00 0.00 0.01
0.00 0.00 0.00 0.00 0.00 0.00 0.00 0.00 0.00 0.00 0.00 0.00 0.00 0.00 0.00 0.00 0.00 0.00 0.00 0.00 0.00 0.00 0.01 0.01 0.00 0.01 0.02 0.00 0.00 0.00 0.00 0.01 0.01 0.00 0.00 0.00 0.00 0.00 0.00 0.00 0.00 0.00 0.00 0.00 0.00 0.00 0.00 0.00 0.00
0.00 0.00 0.00 0.00 0.00 0.00 0.00 0.00 0.00 0.00 0.00 0.00 0.00 0.00 0.00 0.00 0.00 0.00 0.01 0.01 0.02 0.00 0.01 0.00 0.00 0.00 0.00 0.00 0.00 0.00 0.00 0.03 0.01 0.00 0.01 0.02 0.00 0.00 0.00 0.00 0.00 0.00 0.00 0.00 0.00 0.00 0.00 0.00 0.01
0.00 0.00 0.00 0.00 0.00 0.00 0.00 0.00 0.00 0.00 0.00 0.00 0.00 0.00 0.00 0.00 0.00 0.00 0.00 0.00 0.02 0.00 0.00 0.00 0.00 0.00 0.00 0.00 0.00 0.00 0.00 0.01 0.00 0.00 0.00 0.00 0.00 0.00 0.00 0.00 0.00 0.00 0.00 0.00 0.00 0.00 0.00 0.01 0.03
0.00 0.00 0.00 0.00 0.00 0.00 0.00 0.00 0.00 0.00 0.00 0.00 0.00 0.00 0.00 0.00 0.00 0.00 0.00 0.00 0.00 0.00 0.00 0.00 0.00 0.00 0.00 0.00 0.00 0.00 0.00 0.00 0.00 0.00 0.00 0.00 0.00 0.00 0.00 0.00 0.00 0.00 0.00 0.00 0.00 0.00 0.00 0.00 0.00
0.01 0.01 0.01 0.00 0.00 0.00 0.00 0.00 0.00 0.00 0.00 0.00 0.00 0.00 0.00 0.00 0.00 0.00 0.00 0.00 0.00 0.00 0.00 0.00 0.00 0.00 0.00 0.00 0.00 0.00 0.00 0.00 0.00 0.00 0.00 0.00 0.00 0.00 0.00 0.00 0.00 0.00 0.00 0.00 0.00 0.00 0.00 0.00 0.00
0.03 0.06 0.03 0.00 0.00 0.00 0.00 0.00 0.00 0.00 0.00 0.00 0.00 0.00 0.00 0.00 0.00 0.00 0.00 0.00 0.00 0.00 0.00 0.00 0.00 0.00 0.00 0.00 0.00 0.00 0.00 0.00 0.00 0.00 0.00 0.00 0.00 0.00 0.00 0.00 0.00 0.00 0.00 0.00 0.00 0.00 0.00 0.00 0.00
0.06 0.04 0.02 0.01 0.00 0.00 0.00 0.00 0.00 0.00 0.00 0.00 0.00 0.00 0.00 0.00 0.00 0.00 0.00 0.00 0.00 0.00 0.00 0.00 0.00 0.00 0.00 0.00 0.00 0.00 0.00 0.00 0.00 0.00 0.00 0.00 0.00 0.00 0.00 0.00 0.00 0.00 0.00 0.00 0.00 0.00 0.00 0.00 0.00
0.01 0.01 0.05 0.01 0.01 0.00 0.00 0.00 0.00 0.00 0.00 0.00 0.00 0.00 0.00 0.00 0.00 0.00 0.00 0.00 0.00 0.00 0.00 0.00 0.00 0.00 0.00 0.00 0.00 0.00 0.00 0.00 0.01 0.00 0.00 0.00 0.00 0.00 0.00 0.00 0.00 0.00 0.00 0.00 0.00 0.00 0.00 0.00 0.00
0.00 0.00 0.00 0.01 0.00 0.00 0.03 0.02 0.00 0.00 0.00 0.00 0.00 0.00 0.00 0.00 0.00 0.00 0.00 0.00 0.00 0.00 0.00 0.00 0.00 0.00 0.00 0.00 0.00 0.00 0.00 0.00 0.00 0.00 0.06 0.03 0.00 0.00 0.00 0.00 0.00 0.00 0.00 0.00 0.00 0.00 0.00 0.00 0.00
0.00 0.00 0.00 0.00 0.00 0.02 0.07 0.12 0.06 0.00 0.00 0.00 0.00 0.00 0.00 0.00 0.00 0.00 0.00 0.00 0.00 0.00 0.00 0.00 0.00 0.00 0.00 0.00 0.00 0.00 0.00 0.00 0.00 0.00 0.03 0.04 0.03 0.00 0.00 0.00 0.00 0.00 0.00 0.00 0.00 0.00 0.00 0.00 0.00
0.00 0.00 0.00 0.00 0.00 0.03 0.04 0.11 0.11 0.04 0.01 0.00 0.00 0.00 0.00 0.00 0.00 0.00 0.00 0.00 0.00 0.00 0.00 0.00 0.00 0.00 0.00 0.00 0.00 0.01 0.00 0.00 0.03 0.02 0.02 0.04 0.16 0.07 0.00 0.00 0.00 0.00 0.00 0.00 0.00 0.00 0.00 0.00 0.00
0.00 0.00 0.00 0.00 0.00 0.00 0.00 0.01 0.03 0.04 0.09 0.00 0.00 0.00 0.00 0.00 0.00 0.00 0.00 0.00 0.00 0.00 0.00 0.00 0.00 0.00 0.00 0.00 0.01 0.05 0.08 0.03 0.04 0.04 0.08 0.06 0.03 0.02 0.01 0.04 0.02 0.01 0.01 0.02 0.02 0.00 0.02 0.00 0.00
0.00 0.00 0.00 0.00 0.00 0.00 0.00 0.00 0.01 0.02 0.03 0.01 0.01 0.00 0.00 0.00 0.00 0.00 0.00 0.00 0.00 0.00 0.00 0.00 0.14 0.14 0.14 0.24 0.20 0.22 0.18 0.01 0.07 0.14 0.09 0.05 0.06 0.05 0.09 0.13 0.16 0.07 0.04 0.03 0.02 0.02 0.00 0.01 0.00
0.00 0.00 0.00 0.00 0.00 0.00 0.00 0.00 0.00 0.00 0.02 0.02 0.02 0.00 0.00 0.00 0.00 0.00 0.00 0.00 0.00 0.00 0.00 0.01 0.21 0.25 0.22 0.19 0.14 0.11 0.11 0.08 0.19 0.22 0.25 0.15 0.07 0.02 0.06 0.10 0.07 0.09 0.13 0.09 0.09 0.07 0.03 0.02 0.02
0.00 0.00 0.00 0.00 0.00 0.00 0.00 0.00 0.00 0.00 0.00 0.00 0.00 0.00 0.00 0.00 0.00 0.00 0.00 0.00 0.00 0.00 0.02 0.06 0.10 0.11 0.08 0.04 0.04 0.06 0.16 0.17 0.13 0.15 0.11 0.05 0.03 0.01 0.01 0.02 0.01 0.02 0.04 0.09 0.12 0.06 0.11 0.11 0.10
0.00 0.00 0.00 0.00 0.00 0.00 0.00 0.00 0.00 0.00 0.00 0.00 0.00 0.00 0.00 0.01 0.00 0.00 0.01 0.03 0.06 0.03 0.10 0.11 0.16 0.12 0.05 0.02 0.01 0.01 0.03 0.02 0.00 0.00 0.00 0.00 0.00 0.00 0.00 0.00 0.00 0.00 0.00 0.00 0.04 0.03 0.06 0.11 0.10
0.00 0.00 0.00 0.00 0.00 0.00 0.00 0.00 0.00 0.00 0.00 0.00 0.00 0.00 0.00 0.00 0.01 0.03 0.04 0.04 0.04 0.04 0.04 0.02 0.02 0.02 0.02 0.02 0.02 0.00 0.00 0.00 0.00 0.00 0.00 0.00 0.00 0.00 0.00 0.00 0.00 0.00 0.00 0.00 0.00 0.00 0.00 0.01 0.02
0.00 0.00 0.00 0.00 0.00 0.00 0.00 0.00 0.00 0.00 0.00 0.00 0.00 0.00 0.00 0.01 0.01 0.01 0.02 0.03 0.05 0.04 0.01 0.00 0.00 0.00 0.00 0.01 0.01 0.00 0.00 0.00 0.00 0.00 0.00 0.00 0.00 0.00 0.00 0.00 0.00 0.00 0.00 0.00 0.00 0.00 0.00 0.00 0.00
0.00 0.00 0.00 0.00 0.00 0.00 0.00 0.00 0.00 0.00 0.00 0.00 0.00 0.00 0.00 0.02 0.03 0.07 0.07 0.08 0.05 0.03 0.03 0.01 0.00 0.00 0.00 0.00 0.00 0.00 0.00 0.00 0.00 0.00 0.00 0.00 0.00 0.00 0.00 0.00 0.00 0.00 0.00 0.00 0.00 0.00 0.00 0.00 0.00
MSLP
1007.48 1007.39 1007.13 1006.15 1006.81 1005.78 1005.28 1005.62 1005.43 1005.32 1005.56 1005.22 1006.28 1006.73 1007.89 1008.48 1008.32 1011.56 1012.92 1013.30 1013.84 1014.66 1015.18 1015.68 1015.83 1016.03 1016.22 1016.32 1016.33 1016.33 1016.33 1016.35 1016.37 1016.44 1016.43 1016.46 1016.49 1016.60 1016.73 1016.80 1016.90 1016.85 1016.88 1016.91 1017.02 1017.05 1017.17 1017.28 1017.27
1006.78 1006.33 1006.54 1006.30 1005.70 1004.99 1005.33 1004.87 1004.94 1005.00 1005.17 1005.47 1006.26 1007.00 1007.98 1009.02 1009.68 1011.39 1012.73 1013.44 1013.64 1014.27 1015.11 1015.77 1016.13 1016.24 1016.44 1016.57 1016.56 1016.58 1016.60 1016.67 1016.77 1016.74 1016.73 1016.77 1016.87 1016.83 1016.93 1017.04 1017.12 1017.13 1017.08 1017.12 1017.19 1017.29 1017.42 1017.48 1017.51
1006.80 1005.33 1005.83 1005.21 1004.81 1004.46 1004.39 1004.39 1004.37 1004.77 1005.46 1005.74 1006.58 1007.18 1008.40 1009.76 1010.28 1011.51 1013.06 1013.57 1013.78 1014.60 1015.47 1016.09 1016.45 1016.53 1016.60 1016.77 1016.79 1016.80 1016.86 1016.86 1016.93 1016.97 1017.01 1017.06 1017.11 1017.14 1017.16 1017.26 1017.33 1017.29 1017.30 1017.34 1017.43 1017.49 1017.63 1017.66 1017.64
1005.19 1004.86 1004.59 1004.42 1003.42 1003.46 1003.55 1003.88 1004.29 1004.72 1005.57 1006.25 1007.09 1008.27 1009.22 1010.12 1010.70 1011.85 1012.97 1013.32 1014.16 1014.76 1015.81 1016.45 1016.61 1016.68 1016.86 1016.89 1017.02 1017.04 1017.04 1017.05 1017.00 1017.06 1017.16 1017.26 1017.34 1017.40 1017.44 1017.51 1017.52 1017.55 1017.56 1017.53 1017.55 1017.52 1017.63 1017.70 1017.69
1005.09 1004.44 1004.25 1003.62 1003.28 1002.96 1003.37 1003.49 1004.26 1004.84 1005.59 1006.29 1007.34 1008.99 1009.68 1010.73 1011.17 1012.44 1013.27 1013.80 1014.25 1014.99 1015.87 1016.49 1016.73 1016.89 1017.02 1017.10 1017.15 1017.23 1017.20 1017.20 1017.19 1017.22 1017.31 1017.41 1017.54 1017.59 1017.64 1017.72 1017.75 1017.76 1017.74 1017.69 1017.63 1017.61 1017.65 1017.72 1017.72
1007.31 1003.97 1003.58 1002.87 1002.83 1002.81 1002.89 1003.22 1003.85 1004.46 1005.44 1006.62 1007.80 1008.92 1010.22 1011.23 1011.43 1012.52 1013.04 1013.75 1013.85 1014.86 1015.91 1016.46 1016.88 1017.01 1017.16 1017.34 1017.37 1017.43 1017.38 1017.40 1017.27 1017.37 1017.48 1017.60 1017.72 1017.75 1017.81 1017.89 1017.91 1017.90 1017.81 1017.77 1017.70 1017.68 1017.71 1017.71 1017.65
1007.36 1005.32 1003.47 1002.76 1002.96 1003.00 1002.83 1002.99 1003.75 1004.59 1005.32 1006.73 1007.84 1009.04 1010.75 1011.30 1011.63 1012.52 1013.66 1014.10 1014.14 1014.66 1015.69 1016.34 1016.79 1016.98 1017.23 1017.45 1017.60 1017.61 1017.60 1017.44 1017.42 1017.45 1017.59 1017.67 1017.76 1017.83 1017.92 1017.94 1017.96 1017.87 1017.77 1017.68 1017.60 1017.60 1017.61 1017.53 1017.35
1008.23 1007.17 1003.35 1002.65 1002.77 1002.76 1002.87 1003.00 1003.69 1005.03 1006.06 1006.74 1007.71 1009.27 1010.25 1011.19 1011.49 1012.61 1013.79 1014.27 1014.48 1014.53 1015.03 1016.17 1016.85 1016.87 1017.18 1017.47 1017.70 1017.68 1017.54 1017.44 1017.50 1017.62 1017.65 1017.74 1017.59 1017.76 1017.85 1017.79 1017.77 1017.67 1017.49 1017.32 1017.31 1017.47 1017.44 1017.17 1016.90
1005.77 1004.88 1003.49 1001.81 1001.96 1002.56 1002.77 1003.18 1004.51 1005.08 1005.62 1006.39 1006.92 1008.87 1010.06 1011.05 1011.66 1012.45 1013.38 1014.51 1014.75 1014.89 1015.26 1016.11 1016.57 1017.13 1017.11 1017.27 1017.58 1017.52 1017.28 1017.27 1017.37 1017.46 1017.51 1017.77 1017.59 1017.33 1017.52 1017.39 1017.37 1017.34 1017.07 1016.92 1017.00 1017.06 1016.91 1016.87 1016.73
1003.40 1002.91 1002.49 1001.48 1001.92 1002.20 1002.76 1003.42 1004.42 1004.92 1005.66 1006.82 1007.89 1009.17 1010.36 1010.99 1011.65 1011.99 1013.04 1013.95 1014.99 1015.19 1015.56 1016.03 1016.13 1017.04 1016.63 1016.43 1017.05 1017.06 1017.17 1017.08 1016.74 1016.73 1017.04 1017.37 1017.06 1016.70 1016.53 1016.71 1016.92 1016.89 1016.65 1016.47 1016.30 1016.42 1016.20 1016.59 1016.63
1002.42 1001.31 1001.07 1001.50 1001.78 1002.08 1002.95 1003.68 1004.13 1004.80 1005.72 1007.09 1008.36 1009.52 1010.40 1011.02 1011.56 1012.04 1012.50 1013.24 1014.21 1014.60 1015.44 1015.70 1015.82 1016.37 1016.50 1015.93 1016.10 1016.63 1017.35 1017.15 1016.90 1016.50 1015.83 1015.90 1016.26 1016.56 1016.37 1016.51 1016.64 1016.52 1016.10 1015.13 1014.94 1015.58 1017.06 1016.27 1016.69
1002.71 1001.29 1001.80 1001.75 1001.87 1002.30 1002.91 1003.36 1003.83 1004.52 1005.79 1007.03 1008.60 1009.53 1010.29 1010.96 1011.49 1011.85 1012.71 1013.20 1013.83 1014.67 1015.19 1015.30 1015.26 1016.15 1016.08 1015.43 1015.65 1016.12 1016.33 1017.01 1017.01 1015.67 1015.35 1015.37 1015.80 1016.08 1015.98 1016.05 1015.69 1015.42 1014.55 1015.34 1014.89 1014.22 1015.08 1016.88 1015.49
1003.15 1001.88 1001.80 1001.82 1002.21 1002.96 1003.19 1003.88 1004.21 1005.03 1006.23 1007.51 1008.69 1009.41 1009.60 1010.39 1011.18 1011.82 1013.08 1013.39 1013.85 1014.64 1015.31 1015.60 1015.53 1016.37 1015.72 1015.81 1015.65 1016.31 1018.02 1018.74 1017.25 1015.72 1017.68 1017.48 1016.81 1016.51 1016.23 1016.07 1015.77 1015.54 1014.94 1014.01 1014.08 1014.93 1015.23 1015.92 1016.12
1002.51 1002.08 1002.63 1002.83 1003.22 1003.44 1004.05 1004.91 1005.05 1006.08 1006.86 1007.80 1008.65 1009.22 1009.45 1009.68 1010.39 1011.82 1012.88 1013.77 1014.13 1014.81 1015.14 1015.57 1015.95 1016.02 1016.12 1016.32 1016.09 1016.32 1017.27 1018.00 1017.46 1016.15 1016.76 1017.21 1017.84 1017.58 1016.75 1016.51 1016.39 1015.82 1015.65 1015.21 1014.90 1015.77 1015.57 1015.53 1016.49
1002.50 1002.78 1003.07 1003.36 1003.59 1004.02 1004.23 1004.99 1005.51 1006.52 1007.23 1008.02 1008.49 1008.79 1009.08 1009.64 1010.67 1011.83 1012.61 1013.43 1014.28 1014.69 1015.11 1015.84 1016.05 1016.18 1016.57 1016.61 1016.40 1016.38 1016.14 1016.02 1016.19 1016.70 1017.28 1017.83 1018.14 1017.39 1016.85 1016.75 1016.44 1016.34 1016.16 1015.75 1015.01 1015.34 1015.56 1015.33 1016.23
1005.18 1005.51 1004.65 1003.84 1003.67 1004.74 1004.96 1005.40 1005.89 1006.75 1007.41 1007.94 1008.34 1008.62 1009.11 1009.79 1010.61 1011.60 1012.60 1013.27 1014.02 1014.73 1015.09 1015.86 1015.99 1016.24 1016.83 1016.95 1016.75 1016.29 1016.11 1015.96 1015.89 1015.95 1016.38 1017.02 1017.22 1016.99 1017.03 1016.99 1017.00 1016.75 1016.48 1015.94 1015.20 1015.20 1015.71 1015.91 1015.31
1007.46 1007.47 1006.29 1004.50 1003.51 1004.75 1005.82 1005.70 1006.09 1006.79 1007.22 1007.58 1008.17 1008.78 1009.24 1010.02 1010.70 1011.46 1012.29 1013.05 1013.84 1014.68 1015.27 1015.54 1015.60 1016.01 1016.62 1016.81 1016.79 1016.53 1016.43 1016.39 1016.10 1016.05 1016.25 1016.61 1016.81 1016.96 1017.14 1017.00 1017.07 1017.06 1016.94 1016.46 1015.92 1015.84 1016.04 1016.33 1016.05
1007.76 1007.48 1007.16 1004.81 1003.87 1004.65 1005.73 1005.80 1006.19 1006.51 1006.80 1007.23 1007.84 1008.55 1009.10 1009.84 1010.63 1011.10 1011.81 1012.92 1013.50 1014.50 1015.05 1015.33 1015.35 1015.76 1016.42 1016.87 1016.78 1016.67 1016.91 1016.50 1016.09 1016.37 1016.33 1016.65 1016.86 1016.98 1017.20 1017.09 1016.77 1016.90 1017.06 1016.79 1016.69 1016.56 1016.42 1016.50 1016.13
1005.37 1005.26 1005.17 1004.09 1003.68 1003.57 1005.31 1005.81 1006.10 1006.15 1006.12 1006.68 1007.39 1008.11 1008.69 1009.49 1010.29 1010.85 1011.48 1012.19 1013.32 1014.07 1014.70 1014.94 1015.13 1015.54 1016.10 1016.61 1016.79 1016.60 1016.62 1016.67 1017.11 1017.25 1016.84 1017.01 1016.98 1016.96 1016.94 1016.93 1016.69 1016.62 1016.77 1016.97 1017.07 1017.08 1016.89 1016.68 1016.00
1002.68 1003.22 1002.61 1002.70 1002.87 1005.10 1007.66 1008.00 1007.04 1006.17 1005.54 1005.86 1006.54 1007.39 1008.23 1009.15 1010.07 1010.72 1011.28 1011.88 1012.61 1013.42 1014.04 1014.53 1015.11 1015.65 1016.08 1016.38 1016.25 1016.41 1016.73 1016.84 1017.04 1017.24 1017.36 1017.85 1017.48 1017.11 1016.79 1016.76 1016.74 1016.60 1016.66 1016.83 1017.03 1017.10 1017.12 1016.84 1016.18
999.67 999.70 1000.54 1001.96 1003.87 1006.74 1008.11 1009.50 1009.54 1007.05 1006.02 1005.67 1005.87 1006.60 1007.28 1008.29 1009.66 1010.22 1010.97 1011.46 1011.94 1012.75 1013.60 1014.44 1015.20 1015.95 1016.45 1016.33 1016.30 1016.35 1016.50 1016.59 1016.86 1017.49 1017.86 1018.18 1017.57 1016.81 1016.59 1016.65 1016.80 1016.88 1016.88 1016.88 1017.03 1017.01 1017.02 1016.87 1016.53
997.95 997.84 998.52 1000.02 1001.72 1005.89 1008.56 1011.74 1010.68 1008.30 1006.78 1005.55 1005.50 1005.79 1006.56 1007.49 1008.67 1009.56 1010.26 1010.90 1011.37 1012.08 1012.87 1014.19 1015.35 1016.11 1016.64 1016.74 1016.62 1016.63 1016.81 1016.79 1017.20 1017.84 1018.02 1017.96 1017.40 1017.17 1016.59 1016.76 1017.10 1017.24 1016.96 1016.84 1016.70 1016.73 1017.05 1016.95 1016.84
997.74 998.05 998.44 998.83 999.71 1003.36 1006.98 1007.41 1008.53 1008.43 1007.90 1005.24 1004.64 1005.28 1005.80 1006.71 1007.74 1008.66 1009.16 1009.86 1010.44 1011.39 1012.41 1013.45 1014.49 1014.92 1015.36 1016.17 1016.80 1017.20 1017.11 1017.13 1017.56 1017.97 1017.58 1016.82 1017.59 1016.93 1016.82 1017.66 1018.29 1017.06 1017.42 1017.08 1016.80 1016.88 1017.12 1017.17 1017.02
998.18 998.38 998.46 998.56 998.82 999.60 1001.19 1003.28 1007.11 1007.97 1006.93 1006.15 1005.59 1005.07 1005.40 1005.73 1006.87 1007.77 1008.73 1009.60 1010.22 1011.11 1012.40 1013.34 1014.63 1015.23 1015.80 1016.06 1016.65 1017.51 1017.73 1017.41 1017.52 1018.15 1018.05 1017.80 1017.70 1017.31 1017.69 1018.19 1018.24 1018.34 1017.31 1017.48 1016.92 1016.79 1016.98 1016.91 1016.92
998.90 998.62 998.11 998.24 998.21 998.49 998.86 1000.21 1003.33 1005.73 1005.71 1006.41 1004.34 1004.46 1005.53 1005.44 1006.40 1007.72 1008.65 1009.77 1010.68 1011.79 1012.79 1013.94 1015.76 1018.27 1018.03 1016.65 1017.23 1017.77 1018.09 1018.04 1017.93 1018.38 1018.54 1018.01 1017.56 1017.43 1017.98 1018.25 1018.40 1018.33 1017.86 1017.25 1016.76 1016.85 1017.10 1017.04 1016.83
998.76 998.87 998.11 997.50 997.26 998.67 999.23 1000.34 1002.49 1003.19 1004.51 1005.40 1004.23 1004.99 1005.39 1005.96 1006.68 1007.61 1009.05 1010.25 1011.33 1012.18 1013.78 1014.94 1015.95 1017.63 1017.53 1017.65 1018.17 1018.26 1018.10 1018.17 1018.51 1018.61 1018.43 1018.18 1017.97 1017.57 1017.35 1017.64 1017.79 1017.65 1017.27 1016.72 1016.24 1016.58 1016.72 1016.70 1016.59
998.74 998.52 998.91 998.22 997.73 997.93 999.08 1001.26 1002.43 1003.58 1004.27 1004.79 1005.22 1006.47 1007.58 1008.20 1009.47 1010.06 1010.32 1011.93 1013.18 1014.28 1015.87 1016.73 1017.24 1017.93 1018.23 1018.43 1018.83 1019.17 1018.16 1017.81 1018.21 1018.43 1018.36 1018.36 1018.41 1017.84 1017.39 1017.46 1017.62 1017.01 1016.78 1016.53 1016.75 1016.70 1016.40 1016.18 1016.10
998.75 998.67 998.59 998.41 998.53 998.54 998.87 1000.13 1001.09 1003.76 1005.19 1006.53 1008.09 1009.05 1009.92 1011.15 1011.75 1012.21 1012.65 1013.54 1013.85 1015.04 1016.02 1016.91 1017.69 1018.56 1019.06 1019.35 1019.46 1019.14 1019.07 1018.92 1018.49 1018.67 1018.53 1018.45 1018.73 1018.60 1018.24 1018.06 1017.88 1017.34 1017.06 1016.94 1017.06 1016.82 1016.53 1016.15 1015.86
998.84 999.31 999.29 998.96 998.88 998.84 999.39 1000.54 1002.08 1003.66 1005.95 1008.69 1010.90 1012.14 1012.68 1013.23 1014.01 1014.58 1014.78 1015.30 1015.35 1016.01 1016.92 1017.66 1018.08 1018.85 1019.32 1019.55 1019.45 1019.56 1019.55 1019.21 1019.03 1019.62 1019.56 1018.90 1019.35 1019.54 1019.01 1018.71 1018.46 1018.01 1017.45 1017.30 1017.20 1016.88 1016.50 1016.09 1015.63
999.09 998.82 998.82 999.08 999.44 999.62 1000.17 1002.00 1002.87 1004.80 1006.75 1009.67 1012.56 1014.06 1014.79 1015.31 1015.88 1016.37 1016.80 1016.95 1017.36 1018.05 1018.16 1018.66 1018.85 1019.60 1019.97 1020.18 1020.43 1019.47 1019.58 1019.62 1020.00 1020.33 1019.86 1019.72 1020.16 1019.73 1019.54 1019.34 1018.88 1018.34 1017.74 1017.58 1017.37 1016.85 1016.38 1015.99 1015.55
Thickness
5809 5812 5817 5809 5775 5785 5779 5781 5805 5798 5797 5823 5817 5809 5796 5799 5797 5756 5791 5793 5789 5783 5780 5776 5775 5773 5771 5770 5771 5772 5772 5772 5772 5771 5771 5770 5769 5768 5767 5766 5765 5766 5767 5767 5766 5765 5764 5763 5762
5821 5825 5816 5796 5782 5773 5770 5804 5795 5807 5818 5827 5820 5812 5800 5785 5804 5793 5788 5794 5792 5788 5782 5778 5775 5774 5771 5770 5772 5773 5772 5772 5771 5770 5770 5768 5768 5768 5767 5766 5765 5766 5767 5767 5767 5766 5764 5763 5762
5825 5837 5800 5791 5790 5770 5780 5807 5813 5819 5824 5822 5812 5819 5804 5787 5804 5798 5796 5795 5794 5788 5781 5777 5774 5773 5773 5772 5772 5773 5773 5773 5771 5769 5768 5767 5767 5767 5767 5766 5766 5767 5768 5768 5768 5767 5765 5764 5764
5833 5828 5817 5792 5804 5812 5812 5819 5823 5820 5822 5822 5814 5793 5807 5812 5805 5805 5802 5800 5793 5788 5780 5775 5773 5774 5773 5773 5773 5774 5774 5773 5772 5771 5769 5767 5767 5767 5766 5766 5767 5768 5768 5769 5769 5769 5767 5766 5766
5824 5824 5795 5807 5807 5822 5827 5834 5830 5817 5817 5817 5815 5790 5794 5807 5815 5806 5801 5799 5794 5788 5780 5776 5774 5773 5773 5774 5775 5774 5774 5773 5773 5771 5770 5768 5767 5768 5767 5767 5768 5769 5770 5770 5771 5771 5770 5769 5769
5785 5833 5803 5802 5811 5827 5835 5841 5834 5827 5824 5818 5808 5799 5794 5811 5812 5807 5806 5800 5799 5791 5782 5778 5775 5774 5773 5773 5773 5773 5773 5774 5773 5772 5770 5769 5768 5769 5769 5769 5769 5770 5771 5772 5773 5773 5772 5772 5772
5787 5808 5814 5817 5808 5814 5828 5847 5830 5825 5823 5811 5819 5791 5795 5803 5813 5810 5801 5798 5799 5794 5785 5780 5777 5775 5774 5773 5772 5772 5772 5773 5773 5772 5772 5771 5771 5771 5771 5771 5771 5773 5774 5775 5776 5776 5776 5777 5778
5784 5790 5819 5822 5807 5810 5838 5842 5844 5826 5813 5835 5828 5789 5788 5804 5816 5810 5802 5799 5798 5798 5792 5782 5777 5778 5776 5774 5774 5773 5774 5775 5774 5773 5773 5773 5774 5773 5773 5776 5776 5777 5779 5781 5781 5780 5781 5783 5786
5828 5801 5801 5823 5822 5823 5845 5833 5838 5844 5831 5832 5835 5816 5815 5816 5815 5808 5800 5792 5794 5794 5792 5783 5779 5775 5778 5777 5776 5777 5778 5778 5777 5777 5776 5774 5777 5778 5778 5781 5782 5782 5785 5787 5787 5785 5786 5786 5789
5833 5817 5810 5846 5844 5836 5842 5837 5832 5830 5826 5820 5820 5823 5818 5816 5810 5805 5797 5790 5786 5787 5789 5787 5784 5778 5783 5785 5782 5781 5780 5782 5783 5783 5784 5780 5785 5785 5787 5789 5788 5788 5791 5794 5795 5792 5799 5796 5793
5845 5834 5853 5851 5855 5854 5840 5835 5845 5830 5817 5821 5809 5809 5812 5811 5809 5805 5804 5800 5793 5794 5791 5792 5790 5786 5786 5791 5791 5787 5781 5781 5785 5789 5795 5794 5791 5790 5792 5792 5791 5793 5798 5808 5811 5805 5793 5795 5794
5828 5860 5854 5855 5860 5852 5841 5849 5839 5840 5831 5837 5825 5820 5815 5809 5806 5806 5802 5799 5798 5794 5793 5796 5797 5791 5794 5798 5797 5790 5787 5783 5779 5799 5800 5804 5801 5798 5799 5798 5801 5804 5812 5784 5800 5819 5812 5789 5801
5836 5853 5860 5863 5859 5851 5854 5839 5838 5835 5841 5838 5828 5822 5820 5817 5811 5812 5802 5803 5798 5793 5792 5793 5797 5791 5796 5797 5800 5790 5776 5763 5783 5800 5768 5778 5790 5798 5801 5801 5804 5806 5812 5822 5824 5813 5808 5801 5796
5859 5858 5851 5853 5848 5849 5835 5830 5837 5831 5838 5829 5824 5819 5822 5823 5821 5810 5805 5797 5795 5793 5794 5795 5794 5794 5794 5794 5798 5795 5787 5782 5788 5802 5790 5794 5787 5788 5800 5801 5803 5806 5807 5811 5816 5808 5807 5788 5773
5871 5845 5848 5845 5846 5837 5846 5819 5820 5833 5833 5821 5821 5823 5825 5824 5821 5810 5807 5803 5797 5796 5798 5793 5794 5793 5792 5794 5797 5798 5800 5800 5801 5799 5788 5783 5780 5792 5800 5803 5804 5803 5804 5809 5816 5816 5807 5810 5809
5823 5810 5799 5840 5847 5837 5833 5797 5825 5834 5826 5818 5821 5824 5822 5821 5820 5818 5812 5808 5804 5800 5800 5797 5797 5797 5792 5792 5795 5800 5801 5802 5803 5805 5804 5797 5796 5800 5800 5800 5800 5801 5803 5808 5816 5817 5812 5809 5817
5776 5762 5776 5815 5854 5836 5816 5806 5827 5834 5827 5821 5821 5820 5820 5817 5818 5818 5816 5812 5808 5802 5799 5800 5803 5800 5796 5794 5796 5799 5799 5800 5803 5803 5804 5802 5801 5800 5798 5800 5799 5799 5801 5805 5811 5811 5810 5805 5807
5766 5762 5766 5798 5840 5838 5817 5816 5826 5831 5828 5822 5822 5820 5819 5817 5815 5821 5820 5814 5812 5806 5803 5803 5805 5803 5798 5794 5795 5797 5797 5800 5803 5802 5802 5800 5798 5797 5796 5798 5800 5800 5800 5803 5803 5804 5807 5806 5809
5813 5800 5772 5827 5850 5847 5822 5822 5823 5831 5832 5825 5823 5820 5821 5819 5822 5824 5823 5821 5812 5809 5805 5804 5804 5803 5799 5795 5792 5794 5796 5799 5799 5796 5795 5793 5794 5796 5797 5797 5799 5800 5801 5799 5800 5799 5799 5801 5810
5838 5818 5830 5845 5860 5826 5792 5791 5823 5836 5838 5836 5830 5825 5822 5821 5818 5820 5820 5820 5817 5812 5810 5807 5803 5801 5799 5797 5799 5798 5797 5797 5794 5791 5797 5791 5789 5793 5798 5798 5798 5800 5799 5799 5798 5797 5794 5798 5806
5866 5862 5852 5836 5825 5808 5791 5770 5776 5827 5841 5842 5841 5838 5835 5827 5817 5819 5819 5819 5820 5815 5811 5807 5803 5798 5796 5800 5801 5800 5799 5797 5792 5787 5793 5788 5790 5794 5798 5798 5797 5798 5798 5795 5795 5795 5794 5790 5798
5855 5891 5882 5861 5844 5774 5778 5726 5731 5800 5819 5838 5840 5840 5836 5834 5830 5825 5823 5821 5822 5820 5819 5809 5800 5794 5792 5794 5795 5793 5789 5787 5789 5785 5785 5784 5790 5794 5797 5793 5789 5789 5794 5797 5798 5798 5794 5793 5787
5860 5876 5871 5871 5865 5802 5780 5786 5772 5796 5787 5830 5842 5842 5841 5839 5836 5831 5830 5829 5830 5828 5819 5810 5804 5803 5802 5796 5792 5786 5786 5784 5782 5781 5786 5792 5784 5788 5787 5782 5778 5789 5781 5790 5794 5793 5790 5790 5788
5874 5858 5861 5866 5865 5836 5846 5821 5773 5781 5800 5814 5825 5839 5843 5844 5838 5838 5837 5834 5830 5830 5817 5809 5800 5768 5787 5793 5784 5773 5775 5780 5778 5775 5776 5779 5767 5778 5774 5771 5754 5770 5782 5781 5788 5789 5788 5789 5788
5853 5842 5817 5811 5822 5826 5882 5851 5806 5807 5814 5812 5786 5838 5842 5848 5842 5834 5829 5824 5825 5817 5810 5803 5786 5764 5758 5782 5779 5776 5771 5769 5772 5767 5764 5770 5776 5776 5766 5768 5766 5769 5763 5777 5783 5783 5781 5782 5783
5838 5838 5820 5801 5821 5816 5860 5823 5808 5841 5836 5837 5853 5846 5844 5843 5841 5833 5820 5818 5817 5814 5800 5789 5778 5765 5766 5768 5765 5767 5767 5765 5760 5759 5762 5763 5766 5772 5774 5766 5762 5765 5771 5776 5780 5779 5779 5780 5780
5833 5822 5851 5829 5848 5835 5837 5823 5835 5838 5837 5841 5841 5827 5815 5814 5806 5807 5812 5802 5795 5793 5779 5766 5764 5759 5758 5759 5756 5751 5762 5764 5760 5757 5759 5758 5758 5763 5767 5766 5765 5768 5771 5771 5771 5773 5775 5779 5779
5838 5856 5818 5830 5788 5787 5827 5813 5810 5807 5812 5810 5804 5800 5799 5789 5791 5787 5789 5784 5789 5781 5774 5767 5760 5751 5748 5745 5744 5747 5748 5749 5751 5749 5749 5751 5746 5745 5748 5751 5754 5759 5762 5762 5764 5766 5769 5771 5774
5823 5812 5821 5829 5828 5805 5802 5806 5822 5812 5810 5785 5771 5770 5771 5772 5769 5765 5767 5765 5767 5765 5761 5758 5752 5745 5741 5739 5738 5735 5734 5737 5737 5734 5733 5739 5735 5734 5736 5739 5742 5746 5753 5756 5757 5760 5762 5763 5768
5828 5825 5831 5800 5794 5815 5812 5786 5827 5815 5807 5783 5756 5749 5751 5751 5749 5746 5744 5744 5742 5738 5740 5736 5737 5730 5728 5725 5719 5726 5723 5725 5722 5717 5721 5723 5718 5721 5723 5727 5732 5735 5744 5743 5745 5749 5752 5753 5756